Location: Namasale
(1.5000°N, 32.6167°E)
Time: 17:39:39
(UTC+00:00)

Courier 1B - Pass Details

Date: 21 April 2021
Orbit: 962 x 1209 km, 28.3° (Epoch: 18 May)

Event Time Altitude Azimuth Distance (km) Brightness Sun altitude
Rises 03:11:27 0° 213° (SSW) 4,099 10.3 -8.7°
Reaches altitude 10° 03:15:45 10° 192° (SSW) 3,110 9.9 -7.6°
Maximum altitude 03:20:09 16° 157° (SSE) 2,648 9.9 -6.6°
Drops below altitude 10° 03:24:27 10° 122° (ESE) 3,028 10.8 -5.5°
Sets 03:28:30 0° 101° (E) 3,936 12.1 -4.5°
